Etusivu
METAR-TAF:

METAR-TAF

Lentoasemat :

Maple Lake Municipal Airport

Maple Lake, Minnesota, Yhdysvallat

Leveyspiiri: 45-14-10N, Pituuspiiri: 093-59-08W, korkeus merenpinnasta: 313 m

Tämänhetkinen sää

Tämä raportti tehtiin 26 minuuttia sitten, kello 15.55 UTC
Tuuli 7 kn pohjoisen/luoteesta
Lämpötila 24°C
Kosteus 50%
Ilmanpaine 1013 hPa
Näkyvyys: 16.1 km

METAR: KMGG 031555Z AUTO 34007KT 10SM 24/13 A2990 RMK AO2 T02430133

Aika: 11:21 (16:21 UTC)


TAF: puuttuu

Säähavainnot ja -ennusteet yli 4000 lentoasemalta (METAR- ja TAF-raportit).

Käytössä olevat sääasemat on merkitty karttaan keltaisilla ja punaisilla pisteillä.

Aseta hiiri pisteen päälle nähdäksesi sääaseman nimen.

Klikkaa sitten nähdäksesi säähavainnot ja -ennusteet.

Kartan vaihtaminen: klikkaa mustalla rastilla varustettuja vihreitä pisteitä, niin voit zoomata sisään; viivalla varustettua vihreää pistettä, niin voit zoomata ulos tai vihreitä nuolia, niin pääset viereisille kartoille.


METAR-TAF: